GFSSE_prec_precacc_297.txt.gz
Total_Precipitation_Accumulation
0.43 0.31 0.26 0.10 0.09 0.07 0.08 0.04 0.02 0.03 0.03 0.04 0.04 0.05 0.11 0.14 0.12 0.11 0.13 0.14 0.17 0.18 0.15 0.12 0.22 0.31 0.31 0.39 0.39 0.51 0.39 0.38 0.61 1.32 1.75 1.58 1.64 1.42 1.23 1.37 1.27 1.29 1.87
0.90 0.60 0.66 0.27 0.08 0.05 0.07 0.07 0.10 0.04 0.05 0.08 0.04 0.06 0.12 0.18 0.14 0.13 0.18 0.29 0.38 0.41 0.35 0.24 0.35 0.51 0.47 0.47 0.37 0.40 0.27 0.11 0.14 0.47 1.25 1.45 1.10 1.01 1.22 1.65 1.59 1.36 1.43
1.22 1.01 0.82 0.69 0.23 0.15 0.33 0.12 0.05 0.05 0.04 0.03 0.03 0.04 0.17 0.22 0.22 0.29 0.48 0.48 0.65 0.64 0.47 0.36 0.56 0.79 0.80 0.61 0.43 0.46 0.24 0.10 0.14 0.22 0.54 0.79 1.14 1.35 0.97 1.14 1.38 1.35 1.41
0.96 1.23 0.92 1.07 1.12 0.53 0.43 0.23 0.17 0.10 0.05 0.03 0.12 0.14 0.33 0.25 0.38 0.90 1.16 1.06 0.91 0.86 0.61 0.51 0.52 1.36 1.05 0.85 0.52 0.31 0.21 0.18 0.24 0.21 0.27 0.60 1.14 1.46 0.88 0.73 0.90 1.12 1.37
0.94 0.60 0.96 1.12 1.00 0.80 0.47 0.28 0.43 0.48 0.34 0.08 0.08 0.28 0.45 0.67 1.43 2.38 2.63 1.62 1.72 1.64 1.16 0.91 0.69 1.01 1.19 0.84 0.49 0.32 0.25 0.17 0.23 0.43 0.54 0.64 0.77 1.34 0.96 0.77 0.99 1.13 1.18
1.22 1.42 2.09 1.85 1.56 0.87 0.63 0.82 1.08 1.07 0.82 0.56 0.49 0.71 1.00 1.52 2.45 2.42 1.59 1.40 1.81 3.03 1.63 1.18 0.68 0.39 0.30 0.59 0.62 0.66 0.39 0.23 0.55 0.92 0.89 0.66 0.62 0.99 0.76 0.55 0.69 0.98 0.72
2.60 2.47 3.19 4.34 3.84 2.91 1.91 1.42 1.43 1.65 1.34 1.37 1.77 1.83 1.87 1.84 2.50 1.42 0.69 1.07 2.45 2.34 1.07 0.94 0.57 0.32 0.45 0.22 0.27 0.42 0.39 0.33 0.53 0.95 0.95 1.09 1.37 1.54 0.63 0.66 0.68 0.62 0.61
6.23 5.29 5.62 6.71 5.83 4.59 3.53 2.32 2.32 2.14 1.88 1.91 1.67 2.14 2.46 1.35 1.12 0.78 0.42 0.44 0.64 0.56 0.57 0.47 0.22 0.27 0.43 0.28 0.23 0.26 0.38 0.42 0.96 2.03 2.03 1.14 1.23 1.32 0.74 0.87 0.79 0.59 0.48
4.44 5.86 6.90 7.55 8.36 7.50 4.24 3.28 3.30 3.37 2.92 2.39 2.16 1.95 2.16 1.62 1.25 0.97 0.45 0.32 0.26 0.17 0.30 0.37 0.28 0.36 0.41 0.43 0.47 0.43 0.58 0.78 1.19 2.61 2.13 1.69 1.01 1.39 1.35 0.96 0.76 0.53 0.38
2.47 3.25 3.60 3.74 7.20 11.79 7.99 5.03 4.14 3.79 3.59 2.59 2.39 1.76 1.31 1.54 1.54 1.39 0.58 0.29 0.23 0.16 0.31 0.56 0.65 0.70 0.50 0.52 0.63 0.47 0.65 0.65 0.83 0.66 0.67 0.84 0.74 1.33 1.50 1.26 0.78 0.58 0.48
2.74 2.39 1.90 2.61 3.41 5.98 9.68 6.53 5.18 4.21 2.78 2.60 2.23 1.68 1.18 0.95 0.89 0.83 0.48 0.32 0.27 0.27 0.45 0.76 0.73 0.80 0.98 0.69 0.75 0.81 0.53 0.32 0.63 0.71 0.34 0.62 0.69 1.09 1.11 1.04 0.79 0.70 0.53
2.02 2.35 1.90 1.31 1.38 2.06 4.50 4.27 4.57 4.59 2.74 2.18 1.79 1.30 1.13 0.94 0.55 0.40 0.29 0.26 0.42 0.37 0.42 0.49 0.70 0.86 0.78 0.38 0.40 0.43 0.30 0.55 0.86 1.31 0.62 0.43 0.89 0.97 0.96 0.98 0.78 0.72 0.74
1.49 1.77 1.33 1.22 1.03 1.21 2.27 1.97 2.43 3.15 3.40 2.31 1.98 1.24 1.23 0.86 0.54 0.50 0.31 0.32 0.64 0.42 0.18 0.23 0.38 0.47 0.44 0.41 0.29 0.25 0.29 0.64 0.53 1.36 0.97 0.55 1.15 1.17 1.20 0.88 1.05 1.18 1.05
0.81 1.09 1.07 0.63 0.76 1.09 1.07 1.29 1.55 1.58 3.16 2.90 2.20 1.67 1.35 0.88 0.41 0.33 0.24 0.24 0.23 0.40 0.20 0.14 0.19 0.26 0.37 0.48 0.49 0.36 0.36 0.57 0.47 0.73 0.72 0.50 0.87 1.25 1.06 0.89 0.91 0.99 1.16
0.87 1.03 0.96 0.82 0.82 0.76 0.51 0.67 1.32 1.09 1.90 2.90 2.33 1.83 1.33 0.82 0.39 0.20 0.20 0.23 0.16 0.25 0.33 0.30 0.23 0.31 0.39 0.52 0.57 0.42 0.56 0.67 0.66 0.68 0.58 0.26 0.48 1.05 0.94 0.69 0.86 1.00 0.94
0.79 1.16 0.91 0.76 0.88 0.80 0.62 0.65 1.12 1.01 1.10 2.21 1.87 1.39 1.55 0.89 0.49 0.35 0.31 0.18 0.22 0.23 0.25 0.44 0.41 0.36 0.37 0.38 0.58 0.61 0.66 0.71 0.73 0.90 0.87 0.64 0.46 0.46 0.98 1.15 0.76 0.90 1.09
0.56 0.70 0.64 0.87 1.00 0.97 0.84 0.85 1.13 1.15 1.12 1.59 1.33 1.33 1.74 0.99 0.73 0.55 0.44 0.29 0.18 0.20 0.19 0.22 0.36 0.64 0.72 0.56 0.51 0.72 0.86 0.62 0.53 0.54 0.51 0.40 0.35 0.35 0.52 1.02 1.42 1.05 0.78
0.24 0.62 0.97 1.17 1.41 1.45 0.72 0.86 0.92 0.98 1.24 1.47 1.23 1.33 1.82 1.12 0.78 0.76 0.66 0.48 0.31 0.19 0.16 0.13 0.15 0.39 0.60 0.54 0.46 0.50 0.52 0.57 0.41 0.31 0.32 0.25 0.23 0.20 0.30 0.43 0.74 1.65 1.43
0.21 0.39 0.73 1.10 1.25 1.64 1.47 1.91 1.66 1.21 1.13 1.37 1.43 1.39 1.88 1.49 1.22 0.83 0.69 0.70 0.57 0.34 0.26 0.15 0.14 0.16 0.31 0.34 0.37 0.39 0.39 0.49 0.58 0.60 0.32 0.30 0.25 0.24 0.36 0.60 0.71 0.87 1.06
0.09 0.38 0.79 1.21 1.76 3.06 2.33 1.45 0.97 0.95 0.92 1.08 1.28 1.42 2.12 1.64 1.90 1.86 1.20 1.05 0.88 0.63 0.51 0.44 0.32 0.26 0.14 0.19 0.34 0.43 0.43 0.65 0.65 0.71 0.78 0.63 0.40 0.35 0.39 0.67 0.73 0.57 0.65
0.16 0.53 0.85 0.92 1.08 1.12 0.68 0.54 0.54 0.68 1.01 1.05 1.09 1.16 2.31 2.35 1.80 2.31 2.75 1.62 1.39 0.96 0.75 0.79 0.78 0.53 0.44 0.39 0.63 0.58 0.52 0.44 0.50 0.51 0.59 0.61 0.67 0.54 0.65 0.51 0.78 0.56 0.47
0.33 0.38 0.26 0.15 0.12 0.26 0.35 0.39 0.39 0.44 0.68 0.82 1.37 1.07 1.36 1.94 1.86 1.32 1.66 1.67 1.37 1.11 1.02 0.82 0.60 0.49 0.41 0.58 0.61 0.53 0.47 0.44 0.31 0.37 0.41 0.36 0.35 0.49 0.48 0.55 0.62 0.54 0.59
0.04 0.10 0.08 0.09 0.09 0.11 0.17 0.26 0.35 0.40 0.50 0.72 1.40 1.47 1.15 1.55 1.44 1.26 1.33 1.51 1.91 1.80 1.41 1.17 0.95 0.70 0.59 0.47 0.63 0.62 0.47 0.37 0.25 0.17 0.20 0.21 0.21 0.25 0.25 0.42 0.52 0.52 0.65
0.07 0.03 0.09 0.16 0.19 0.15 0.17 0.15 0.18 0.22 0.27 0.43 0.86 1.27 1.35 1.36 1.34 1.42 1.71 1.56 1.43 1.53 1.34 1.09 1.11 1.02 0.86 0.56 0.61 0.57 0.41 0.34 0.42 0.32 0.19 0.24 0.31 0.24 0.23 0.37 0.39 0.42 0.59
0.04 0.09 0.16 0.18 0.32 0.40 0.40 0.25 0.28 0.24 0.30 0.39 0.69 1.27 1.49 1.76 1.98 1.78 1.80 2.04 1.87 1.51 1.38 1.40 1.10 1.18 1.38 1.06 0.60 0.56 0.52 0.47 0.40 0.35 0.31 0.23 0.32 0.24 0.24 0.29 0.37 0.47 0.57
0.07 0.14 0.24 0.23 0.32 0.49 0.63 0.59 0.45 0.45 0.36 0.34 0.49 1.13 1.46 1.78 2.31 2.67 2.74 2.68 2.33 1.99 1.92 1.75 1.88 1.71 1.19 1.22 1.26 1.00 0.81 0.87 0.79 0.75 0.58 0.32 0.30 0.30 0.31 0.30 0.23 0.24 0.37

GFSSE_prec_precacc_303.txt.gz
Total_Precipitation_Accumulation
0.53 0.31 0.28 0.10 0.09 0.07 0.09 0.04 0.02 0.03 0.03 0.05 0.05 0.07 0.12 0.16 0.13 0.13 0.13 0.16 0.19 0.20 0.16 0.13 0.24 0.32 0.31 0.39 0.42 0.60 0.46 0.41 0.63 1.33 1.75 1.58 1.64 1.42 1.24 1.41 1.32 1.30 1.88
0.99 0.62 0.68 0.27 0.09 0.06 0.07 0.07 0.10 0.05 0.05 0.08 0.05 0.08 0.14 0.21 0.16 0.15 0.19 0.30 0.39 0.42 0.36 0.25 0.36 0.51 0.47 0.47 0.38 0.41 0.27 0.11 0.14 0.48 1.25 1.45 1.10 1.01 1.22 1.66 1.64 1.42 1.47
1.27 1.05 0.82 0.69 0.23 0.15 0.33 0.12 0.05 0.06 0.05 0.03 0.03 0.05 0.19 0.25 0.22 0.30 0.49 0.49 0.66 0.65 0.48 0.37 0.57 0.79 0.80 0.61 0.43 0.46 0.24 0.10 0.14 0.22 0.54 0.79 1.14 1.36 0.97 1.14 1.39 1.36 1.43
0.99 1.24 0.92 1.07 1.12 0.53 0.43 0.23 0.17 0.10 0.05 0.03 0.12 0.15 0.34 0.27 0.38 0.90 1.16 1.06 0.91 0.87 0.61 0.52 0.54 1.37 1.06 0.86 0.52 0.31 0.21 0.18 0.24 0.21 0.27 0.60 1.14 1.46 0.89 0.73 0.90 1.13 1.38
0.95 0.61 0.96 1.12 1.00 0.80 0.47 0.28 0.43 0.48 0.34 0.08 0.09 0.29 0.46 0.68 1.44 2.38 2.63 1.62 1.72 1.64 1.17 0.91 0.69 1.01 1.19 0.84 0.49 0.32 0.25 0.17 0.23 0.43 0.54 0.64 0.78 1.35 0.96 0.77 0.99 1.13 1.18
1.23 1.43 2.09 1.85 1.56 0.87 0.63 0.82 1.08 1.07 0.82 0.56 0.50 0.71 1.01 1.53 2.46 2.42 1.59 1.40 1.81 3.03 1.63 1.18 0.68 0.39 0.30 0.59 0.62 0.66 0.39 0.23 0.55 0.92 0.89 0.66 0.62 1.01 0.77 0.56 0.71 1.00 0.74
2.61 2.47 3.19 4.34 3.84 2.91 1.91 1.42 1.43 1.65 1.34 1.37 1.78 1.83 1.87 1.84 2.50 1.42 0.69 1.07 2.45 2.34 1.07 0.94 0.57 0.32 0.45 0.22 0.27 0.42 0.39 0.33 0.53 0.95 0.95 1.09 1.37 1.54 0.63 0.66 0.69 0.63 0.62
6.23 5.29 5.62 6.71 5.83 4.59 3.53 2.32 2.32 2.14 1.88 1.91 1.67 2.14 2.46 1.35 1.12 0.78 0.42 0.44 0.64 0.56 0.57 0.47 0.22 0.27 0.43 0.28 0.23 0.26 0.38 0.42 0.96 2.03 2.03 1.14 1.23 1.32 0.75 0.87 0.80 0.60 0.48
4.44 5.86 6.90 7.55 8.36 7.50 4.24 3.28 3.30 3.37 2.92 2.39 2.16 1.95 2.16 1.62 1.25 0.97 0.45 0.32 0.26 0.17 0.30 0.37 0.28 0.36 0.41 0.43 0.47 0.43 0.58 0.78 1.19 2.61 2.13 1.69 1.01 1.39 1.35 0.97 0.77 0.54 0.38
2.47 3.25 3.60 3.74 7.20 11.79 7.99 5.03 4.14 3.79 3.59 2.59 2.39 1.76 1.31 1.54 1.54 1.39 0.58 0.29 0.23 0.16 0.31 0.56 0.65 0.70 0.50 0.52 0.63 0.47 0.65 0.65 0.83 0.66 0.67 0.84 0.74 1.33 1.51 1.26 0.79 0.59 0.48
2.75 2.39 1.90 2.61 3.41 5.98 9.68 6.53 5.19 4.22 2.79 2.60 2.23 1.68 1.18 0.95 0.89 0.83 0.48 0.32 0.27 0.27 0.45 0.76 0.73 0.80 0.98 0.69 0.75 0.81 0.53 0.32 0.63 0.71 0.34 0.62 0.69 1.09 1.11 1.04 0.79 0.70 0.53
2.04 2.37 1.92 1.33 1.39 2.07 4.51 4.27 4.57 4.59 2.75 2.18 1.79 1.30 1.13 0.94 0.55 0.40 0.29 0.26 0.42 0.37 0.42 0.49 0.70 0.86 0.78 0.38 0.40 0.43 0.30 0.55 0.86 1.31 0.62 0.43 0.89 0.97 0.96 0.98 0.78 0.72 0.74
1.49 1.77 1.33 1.22 1.03 1.22 2.29 1.97 2.43 3.15 3.41 2.31 1.98 1.24 1.23 0.86 0.54 0.50 0.31 0.32 0.64 0.42 0.18 0.23 0.38 0.47 0.44 0.41 0.29 0.25 0.29 0.64 0.53 1.36 0.97 0.55 1.15 1.17 1.20 0.88 1.05 1.18 1.05
0.81 1.09 1.07 0.63 0.76 1.09 1.07 1.29 1.56 1.59 3.18 2.92 2.21 1.67 1.35 0.88 0.41 0.33 0.24 0.24 0.23 0.40 0.20 0.14 0.19 0.26 0.37 0.48 0.49 0.36 0.36 0.57 0.47 0.73 0.72 0.50 0.87 1.25 1.06 0.90 0.92 0.99 1.16
0.87 1.03 0.96 0.82 0.82 0.76 0.51 0.67 1.32 1.09 1.90 2.91 2.33 1.83 1.35 0.85 0.41 0.21 0.20 0.23 0.16 0.25 0.33 0.30 0.23 0.31 0.39 0.52 0.57 0.42 0.56 0.67 0.66 0.68 0.58 0.26 0.48 1.05 0.94 0.69 0.86 1.00 0.94
0.79 1.16 0.91 0.76 0.88 0.80 0.62 0.65 1.12 1.01 1.10 2.21 1.87 1.39 1.56 0.92 0.51 0.38 0.33 0.19 0.23 0.23 0.25 0.44 0.41 0.36 0.37 0.38 0.58 0.61 0.66 0.71 0.73 0.90 0.87 0.64 0.46 0.46 0.98 1.15 0.76 0.90 1.09
0.56 0.70 0.64 0.87 1.00 0.97 0.84 0.85 1.13 1.15 1.12 1.59 1.33 1.33 1.74 1.00 0.74 0.58 0.50 0.35 0.26 0.29 0.23 0.24 0.37 0.64 0.72 0.56 0.51 0.72 0.86 0.62 0.53 0.54 0.51 0.40 0.35 0.35 0.52 1.02 1.42 1.05 0.78
0.24 0.62 0.97 1.17 1.41 1.45 0.72 0.86 0.92 0.98 1.24 1.47 1.23 1.33 1.82 1.12 0.78 0.76 0.68 0.55 0.45 0.33 0.28 0.28 0.32 0.51 0.62 0.55 0.46 0.50 0.52 0.57 0.41 0.31 0.32 0.25 0.23 0.20 0.30 0.43 0.74 1.65 1.43
0.21 0.39 0.73 1.10 1.25 1.64 1.47 1.91 1.66 1.21 1.13 1.37 1.43 1.39 1.88 1.49 1.22 0.83 0.69 0.71 0.58 0.39 0.39 0.46 0.50 0.43 0.47 0.39 0.38 0.40 0.39 0.49 0.58 0.60 0.32 0.30 0.25 0.24 0.36 0.60 0.72 0.87 1.06
0.09 0.38 0.79 1.21 1.76 3.06 2.33 1.45 0.97 0.95 0.92 1.08 1.28 1.42 2.12 1.64 1.90 1.86 1.20 1.05 0.88 0.63 0.54 0.60 0.56 0.55 0.45 0.37 0.38 0.44 0.43 0.65 0.65 0.71 0.78 0.63 0.40 0.35 0.39 0.67 0.74 0.61 0.68
0.16 0.53 0.85 0.92 1.08 1.12 0.68 0.54 0.54 0.68 1.01 1.05 1.09 1.16 2.31 2.35 1.80 2.31 2.75 1.62 1.39 0.96 0.75 0.80 0.83 0.77 0.66 0.51 0.67 0.58 0.52 0.44 0.50 0.51 0.59 0.61 0.67 0.54 0.65 0.51 0.78 0.58 0.50
0.33 0.38 0.26 0.15 0.12 0.26 0.35 0.39 0.39 0.44 0.68 0.82 1.37 1.07 1.36 1.94 1.86 1.32 1.66 1.67 1.37 1.11 1.02 0.82 0.60 0.49 0.43 0.59 0.62 0.54 0.48 0.45 0.31 0.38 0.42 0.36 0.35 0.49 0.48 0.55 0.62 0.54 0.60
0.04 0.10 0.08 0.09 0.09 0.11 0.17 0.26 0.35 0.40 0.50 0.72 1.40 1.47 1.15 1.55 1.44 1.26 1.33 1.51 1.91 1.80 1.41 1.17 0.95 0.70 0.59 0.47 0.66 0.70 0.54 0.40 0.25 0.17 0.21 0.22 0.22 0.25 0.25 0.42 0.52 0.52 0.65
0.07 0.03 0.09 0.16 0.19 0.15 0.17 0.15 0.18 0.22 0.27 0.43 0.86 1.27 1.35 1.36 1.34 1.42 1.71 1.56 1.43 1.53 1.34 1.09 1.11 1.02 0.86 0.56 0.61 0.60 0.51 0.47 0.52 0.38 0.20 0.24 0.31 0.25 0.25 0.38 0.39 0.42 0.59
0.04 0.09 0.16 0.18 0.32 0.40 0.40 0.25 0.28 0.24 0.30 0.39 0.69 1.27 1.49 1.76 1.98 1.78 1.80 2.04 1.87 1.51 1.38 1.40 1.10 1.18 1.38 1.06 0.61 0.56 0.52 0.49 0.47 0.46 0.35 0.24 0.33 0.25 0.25 0.29 0.37 0.47 0.57
0.07 0.14 0.24 0.23 0.32 0.49 0.63 0.59 0.45 0.45 0.36 0.34 0.49 1.13 1.46 1.78 2.31 2.67 2.74 2.68 2.33 1.99 1.92 1.75 1.88 1.71 1.19 1.22 1.26 1.00 0.81 0.90 0.84 0.87 0.70 0.36 0.31 0.30 0.31 0.30 0.23 0.24 0.37

GFSSE_prec_precacc_306.txt.gz
Total_Precipitation_Accumulation
0.58 0.32 0.30 0.11 0.10 0.08 0.09 0.04 0.03 0.04 0.05 0.07 0.06 0.08 0.13 0.16 0.14 0.13 0.13 0.16 0.20 0.22 0.16 0.13 0.24 0.33 0.31 0.39 0.42 0.60 0.46 0.41 0.63 1.33 1.75 1.59 1.65 1.44 1.25 1.41 1.32 1.30 1.88
1.04 0.62 0.69 0.28 0.09 0.06 0.08 0.08 0.11 0.06 0.07 0.09 0.05 0.09 0.16 0.22 0.16 0.15 0.19 0.31 0.40 0.42 0.36 0.25 0.36 0.51 0.47 0.47 0.38 0.41 0.27 0.11 0.14 0.48 1.25 1.45 1.10 1.01 1.23 1.66 1.65 1.42 1.47
1.28 1.05 0.82 0.69 0.23 0.15 0.33 0.13 0.05 0.07 0.08 0.04 0.03 0.07 0.21 0.26 0.23 0.30 0.50 0.49 0.67 0.66 0.48 0.37 0.57 0.79 0.80 0.61 0.43 0.46 0.24 0.10 0.14 0.22 0.54 0.79 1.14 1.36 0.97 1.14 1.40 1.37 1.43
1.01 1.24 0.93 1.07 1.12 0.53 0.43 0.23 0.17 0.10 0.05 0.04 0.14 0.16 0.35 0.28 0.39 0.90 1.17 1.07 0.91 0.87 0.61 0.52 0.54 1.37 1.06 0.86 0.52 0.31 0.21 0.18 0.24 0.21 0.27 0.60 1.14 1.46 0.89 0.73 0.90 1.13 1.39
0.96 0.61 0.97 1.12 1.00 0.80 0.47 0.28 0.43 0.48 0.34 0.09 0.09 0.30 0.47 0.68 1.44 2.39 2.64 1.62 1.72 1.64 1.17 0.91 0.69 1.01 1.19 0.84 0.49 0.32 0.25 0.17 0.23 0.43 0.54 0.64 0.78 1.35 0.96 0.77 0.99 1.13 1.18
1.23 1.43 2.09 1.85 1.56 0.87 0.63 0.82 1.08 1.07 0.82 0.56 0.50 0.72 1.02 1.53 2.46 2.42 1.59 1.40 1.81 3.03 1.63 1.18 0.68 0.39 0.30 0.59 0.62 0.66 0.39 0.23 0.55 0.92 0.89 0.66 0.62 1.01 0.77 0.56 0.71 1.00 0.74
2.61 2.47 3.19 4.34 3.84 2.91 1.91 1.42 1.43 1.65 1.34 1.37 1.78 1.83 1.87 1.84 2.50 1.42 0.69 1.07 2.46 2.34 1.07 0.94 0.57 0.32 0.45 0.22 0.27 0.42 0.39 0.33 0.53 0.95 0.95 1.09 1.37 1.54 0.63 0.66 0.69 0.63 0.62
6.23 5.29 5.62 6.71 5.83 4.59 3.53 2.32 2.32 2.14 1.88 1.91 1.67 2.14 2.46 1.35 1.12 0.78 0.42 0.44 0.64 0.56 0.57 0.47 0.22 0.27 0.43 0.28 0.23 0.26 0.38 0.42 0.96 2.03 2.03 1.14 1.23 1.32 0.75 0.88 0.80 0.60 0.48
4.44 5.86 6.90 7.55 8.36 7.50 4.24 3.28 3.30 3.37 2.92 2.39 2.16 1.95 2.16 1.62 1.25 0.97 0.45 0.32 0.26 0.17 0.30 0.37 0.28 0.36 0.41 0.43 0.47 0.43 0.58 0.78 1.19 2.61 2.13 1.69 1.01 1.39 1.35 0.97 0.77 0.54 0.38
2.47 3.25 3.60 3.74 7.20 11.79 7.99 5.03 4.14 3.80 3.59 2.59 2.39 1.76 1.31 1.54 1.54 1.39 0.58 0.29 0.23 0.16 0.31 0.56 0.65 0.70 0.50 0.52 0.63 0.47 0.65 0.65 0.83 0.66 0.67 0.84 0.74 1.33 1.51 1.26 0.79 0.59 0.48
2.75 2.39 1.90 2.61 3.41 5.98 9.68 6.54 5.19 4.22 2.79 2.60 2.23 1.68 1.18 0.95 0.89 0.83 0.48 0.32 0.27 0.27 0.45 0.76 0.73 0.80 0.98 0.69 0.75 0.81 0.53 0.32 0.63 0.71 0.34 0.62 0.69 1.09 1.11 1.04 0.79 0.70 0.53
2.04 2.37 1.92 1.33 1.39 2.07 4.51 4.27 4.57 4.59 2.75 2.18 1.79 1.30 1.13 0.94 0.55 0.40 0.29 0.26 0.42 0.37 0.42 0.49 0.70 0.86 0.78 0.38 0.40 0.43 0.30 0.55 0.86 1.31 0.62 0.43 0.89 0.97 0.97 0.98 0.78 0.72 0.74
1.49 1.77 1.33 1.22 1.03 1.23 2.29 1.98 2.43 3.15 3.41 2.31 1.99 1.25 1.23 0.86 0.54 0.50 0.31 0.32 0.64 0.42 0.18 0.23 0.38 0.47 0.44 0.41 0.29 0.25 0.29 0.64 0.53 1.36 0.97 0.55 1.15 1.17 1.20 0.88 1.05 1.18 1.05
0.81 1.09 1.07 0.63 0.76 1.09 1.07 1.29 1.56 1.59 3.18 2.92 2.22 1.68 1.36 0.89 0.42 0.34 0.24 0.24 0.23 0.40 0.21 0.14 0.19 0.26 0.37 0.48 0.49 0.36 0.36 0.57 0.47 0.73 0.72 0.50 0.87 1.25 1.06 0.90 0.92 1.00 1.16
0.87 1.03 0.96 0.82 0.82 0.76 0.51 0.67 1.32 1.09 1.90 2.91 2.33 1.83 1.35 0.87 0.44 0.25 0.23 0.24 0.16 0.25 0.34 0.31 0.24 0.31 0.39 0.52 0.57 0.42 0.56 0.67 0.66 0.68 0.58 0.27 0.48 1.05 0.94 0.69 0.86 1.00 0.94
0.79 1.16 0.91 0.76 0.88 0.80 0.62 0.65 1.12 1.01 1.10 2.21 1.87 1.39 1.56 0.92 0.51 0.38 0.35 0.22 0.28 0.25 0.27 0.44 0.42 0.37 0.38 0.38 0.58 0.61 0.66 0.71 0.73 0.90 0.87 0.66 0.48 0.46 0.98 1.15 0.76 0.90 1.09
0.56 0.70 0.64 0.87 1.00 0.97 0.84 0.85 1.13 1.15 1.12 1.59 1.33 1.33 1.74 1.00 0.74 0.58 0.50 0.35 0.27 0.32 0.27 0.30 0.41 0.66 0.72 0.57 0.51 0.72 0.86 0.62 0.53 0.54 0.51 0.40 0.38 0.38 0.53 1.03 1.42 1.05 0.78
0.24 0.62 0.97 1.17 1.41 1.45 0.72 0.86 0.92 0.98 1.24 1.47 1.23 1.33 1.82 1.12 0.78 0.76 0.68 0.55 0.45 0.33 0.28 0.29 0.35 0.59 0.69 0.57 0.46 0.50 0.52 0.57 0.41 0.31 0.32 0.25 0.23 0.21 0.34 0.46 0.75 1.66 1.43
0.21 0.39 0.73 1.10 1.25 1.64 1.47 1.91 1.66 1.21 1.13 1.37 1.43 1.39 1.88 1.49 1.22 0.83 0.69 0.71 0.58 0.39 0.39 0.46 0.50 0.44 0.48 0.40 0.38 0.40 0.39 0.49 0.58 0.60 0.32 0.30 0.25 0.24 0.36 0.68 0.75 0.89 1.07
0.09 0.38 0.79 1.21 1.76 3.06 2.33 1.45 0.97 0.95 0.92 1.08 1.28 1.42 2.12 1.64 1.90 1.86 1.20 1.05 0.88 0.63 0.54 0.60 0.56 0.55 0.45 0.37 0.38 0.44 0.43 0.65 0.65 0.71 0.78 0.63 0.40 0.35 0.39 0.67 0.78 0.64 0.74
0.16 0.53 0.85 0.92 1.08 1.12 0.68 0.54 0.54 0.68 1.01 1.05 1.09 1.16 2.31 2.35 1.80 2.31 2.75 1.62 1.39 0.96 0.75 0.80 0.83 0.77 0.66 0.51 0.67 0.58 0.52 0.44 0.50 0.51 0.59 0.61 0.67 0.54 0.65 0.51 0.78 0.59 0.56
0.33 0.38 0.26 0.15 0.12 0.26 0.35 0.39 0.39 0.44 0.68 0.82 1.37 1.07 1.36 1.94 1.86 1.32 1.66 1.67 1.37 1.11 1.02 0.82 0.60 0.49 0.43 0.59 0.62 0.54 0.48 0.45 0.33 0.38 0.43 0.38 0.38 0.49 0.48 0.55 0.62 0.54 0.60
0.04 0.10 0.08 0.09 0.09 0.11 0.17 0.26 0.35 0.40 0.50 0.72 1.40 1.47 1.15 1.55 1.44 1.26 1.33 1.51 1.91 1.80 1.41 1.17 0.95 0.70 0.59 0.47 0.66 0.70 0.54 0.40 0.25 0.17 0.24 0.28 0.25 0.27 0.26 0.43 0.55 0.54 0.65
0.07 0.03 0.09 0.16 0.19 0.15 0.17 0.15 0.18 0.22 0.27 0.43 0.86 1.27 1.35 1.36 1.34 1.42 1.71 1.56 1.43 1.53 1.34 1.09 1.11 1.02 0.86 0.56 0.61 0.60 0.51 0.47 0.53 0.38 0.20 0.24 0.31 0.26 0.26 0.39 0.41 0.47 0.62
0.04 0.09 0.16 0.18 0.32 0.40 0.40 0.25 0.28 0.24 0.30 0.39 0.69 1.27 1.49 1.76 1.98 1.78 1.80 2.04 1.87 1.51 1.38 1.40 1.10 1.18 1.38 1.06 0.61 0.56 0.52 0.49 0.48 0.47 0.35 0.24 0.33 0.25 0.25 0.29 0.38 0.47 0.58
0.07 0.14 0.24 0.23 0.32 0.49 0.63 0.59 0.45 0.45 0.36 0.34 0.49 1.13 1.46 1.78 2.31 2.67 2.74 2.68 2.33 1.99 1.92 1.75 1.88 1.71 1.19 1.22 1.26 1.00 0.82 0.90 0.84 0.87 0.71 0.36 0.31 0.30 0.31 0.30 0.23 0.24 0.38

GFSSE_prec_precacc_309.txt.gz
Total_Precipitation_Accumulation
0.63 0.32 0.30 0.11 0.11 0.08 0.09 0.05 0.04 0.05 0.07 0.09 0.07 0.10 0.15 0.17 0.15 0.15 0.14 0.16 0.20 0.22 0.16 0.13 0.24 0.33 0.31 0.39 0.42 0.60 0.46 0.41 0.63 1.33 1.76 1.59 1.65 1.44 1.25 1.41 1.32 1.30 1.88
1.08 0.62 0.69 0.28 0.09 0.06 0.08 0.08 0.12 0.07 0.10 0.10 0.07 0.13 0.20 0.25 0.18 0.16 0.20 0.31 0.40 0.42 0.36 0.25 0.36 0.51 0.47 0.47 0.38 0.41 0.27 0.11 0.14 0.48 1.25 1.45 1.10 1.01 1.23 1.66 1.65 1.42 1.47
1.35 1.05 0.82 0.69 0.23 0.15 0.33 0.13 0.05 0.08 0.09 0.04 0.04 0.08 0.24 0.30 0.27 0.32 0.51 0.50 0.67 0.66 0.48 0.37 0.57 0.79 0.80 0.61 0.43 0.46 0.24 0.10 0.14 0.22 0.54 0.79 1.14 1.36 0.97 1.14 1.40 1.37 1.43
1.04 1.24 0.93 1.07 1.13 0.53 0.43 0.23 0.17 0.10 0.05 0.04 0.15 0.17 0.36 0.30 0.45 0.93 1.19 1.10 0.92 0.87 0.61 0.52 0.54 1.37 1.06 0.86 0.52 0.31 0.21 0.18 0.24 0.21 0.27 0.60 1.14 1.46 0.89 0.73 0.90 1.13 1.39
0.96 0.61 0.97 1.12 1.00 0.80 0.47 0.28 0.43 0.48 0.34 0.09 0.09 0.31 0.47 0.68 1.44 2.42 2.66 1.65 1.75 1.65 1.18 0.91 0.69 1.01 1.19 0.84 0.49 0.32 0.25 0.17 0.23 0.43 0.54 0.64 0.78 1.35 0.96 0.77 0.99 1.13 1.19
1.23 1.43 2.09 1.85 1.56 0.87 0.63 0.82 1.08 1.07 0.82 0.56 0.50 0.72 1.02 1.53 2.46 2.42 1.60 1.41 1.84 3.04 1.63 1.18 0.68 0.39 0.30 0.59 0.62 0.66 0.39 0.23 0.55 0.92 0.89 0.66 0.62 1.01 0.77 0.56 0.71 1.00 0.74
2.61 2.47 3.19 4.34 3.84 2.92 1.91 1.42 1.43 1.65 1.34 1.37 1.78 1.83 1.87 1.84 2.50 1.42 0.69 1.07 2.46 2.34 1.07 0.94 0.57 0.32 0.45 0.22 0.27 0.42 0.39 0.33 0.53 0.95 0.95 1.09 1.37 1.54 0.63 0.66 0.69 0.63 0.62
6.23 5.29 5.62 6.71 5.83 4.59 3.53 2.33 2.32 2.14 1.88 1.91 1.67 2.14 2.46 1.35 1.12 0.78 0.42 0.44 0.64 0.56 0.57 0.47 0.22 0.27 0.43 0.28 0.23 0.26 0.38 0.42 0.96 2.03 2.03 1.14 1.23 1.32 0.75 0.88 0.80 0.60 0.48
4.44 5.86 6.90 7.55 8.36 7.50 4.24 3.28 3.30 3.37 2.92 2.39 2.16 1.95 2.16 1.62 1.25 0.97 0.45 0.32 0.26 0.17 0.30 0.37 0.28 0.36 0.41 0.43 0.47 0.43 0.58 0.78 1.19 2.61 2.13 1.69 1.01 1.39 1.35 0.97 0.77 0.54 0.38
2.47 3.25 3.60 3.74 7.20 11.80 8.00 5.03 4.14 3.80 3.59 2.59 2.39 1.76 1.31 1.54 1.54 1.39 0.58 0.29 0.23 0.16 0.31 0.56 0.65 0.70 0.50 0.52 0.63 0.47 0.65 0.65 0.83 0.66 0.67 0.84 0.74 1.33 1.51 1.26 0.79 0.59 0.48
2.75 2.39 1.90 2.61 3.41 5.98 9.68 6.54 5.20 4.22 2.79 2.60 2.23 1.68 1.18 0.95 0.89 0.83 0.48 0.32 0.27 0.27 0.45 0.76 0.73 0.80 0.98 0.69 0.75 0.81 0.53 0.32 0.63 0.71 0.34 0.62 0.69 1.09 1.11 1.04 0.79 0.70 0.53
2.04 2.37 1.92 1.33 1.39 2.07 4.51 4.27 4.57 4.59 2.75 2.18 1.79 1.30 1.13 0.96 0.58 0.41 0.30 0.26 0.42 0.37 0.42 0.49 0.70 0.86 0.78 0.38 0.40 0.43 0.30 0.55 0.86 1.31 0.62 0.43 0.89 0.97 0.97 0.98 0.78 0.72 0.74
1.49 1.77 1.33 1.22 1.03 1.23 2.29 1.98 2.43 3.15 3.41 2.31 1.99 1.25 1.23 0.86 0.54 0.51 0.32 0.34 0.67 0.44 0.18 0.23 0.38 0.47 0.44 0.41 0.29 0.25 0.29 0.64 0.53 1.36 0.97 0.55 1.15 1.17 1.20 0.88 1.05 1.18 1.05
0.81 1.09 1.07 0.63 0.76 1.09 1.07 1.29 1.56 1.59 3.18 2.92 2.22 1.68 1.37 0.91 0.44 0.35 0.24 0.25 0.24 0.41 0.22 0.15 0.20 0.26 0.37 0.48 0.49 0.36 0.36 0.57 0.47 0.73 0.73 0.51 0.87 1.25 1.06 0.90 0.92 1.00 1.16
0.87 1.03 0.96 0.82 0.82 0.76 0.51 0.67 1.32 1.09 1.90 2.91 2.33 1.83 1.35 0.87 0.45 0.26 0.25 0.26 0.18 0.26 0.34 0.32 0.25 0.31 0.39 0.52 0.57 0.42 0.56 0.67 0.66 0.68 0.60 0.31 0.48 1.05 0.94 0.69 0.86 1.00 0.94
0.79 1.16 0.91 0.76 0.88 0.80 0.62 0.65 1.12 1.01 1.10 2.21 1.87 1.39 1.56 0.92 0.51 0.38 0.35 0.22 0.29 0.27 0.29 0.47 0.44 0.39 0.39 0.39 0.58 0.61 0.66 0.71 0.73 0.90 0.89 0.74 0.49 0.46 0.98 1.15 0.76 0.90 1.09
0.56 0.70 0.64 0.87 1.00 0.97 0.84 0.85 1.13 1.15 1.12 1.59 1.33 1.33 1.74 1.00 0.74 0.58 0.50 0.35 0.27 0.32 0.28 0.31 0.43 0.67 0.74 0.60 0.54 0.74 0.86 0.62 0.53 0.54 0.51 0.40 0.42 0.41 0.57 1.04 1.42 1.05 0.78
0.24 0.62 0.97 1.17 1.41 1.45 0.72 0.86 0.92 0.98 1.24 1.47 1.23 1.33 1.82 1.12 0.78 0.76 0.68 0.55 0.45 0.33 0.28 0.29 0.35 0.59 0.70 0.59 0.47 0.50 0.52 0.57 0.41 0.31 0.32 0.25 0.23 0.30 0.58 0.62 0.78 1.66 1.43
0.21 0.39 0.73 1.10 1.25 1.64 1.47 1.91 1.66 1.21 1.13 1.37 1.43 1.39 1.88 1.49 1.22 0.83 0.69 0.71 0.58 0.39 0.39 0.46 0.50 0.44 0.48 0.40 0.38 0.40 0.39 0.49 0.58 0.60 0.32 0.30 0.25 0.24 0.37 0.87 0.85 0.92 1.07
0.09 0.38 0.79 1.21 1.76 3.06 2.33 1.45 0.97 0.95 0.92 1.08 1.28 1.42 2.12 1.64 1.90 1.86 1.20 1.05 0.88 0.63 0.54 0.60 0.56 0.55 0.45 0.37 0.38 0.44 0.44 0.65 0.65 0.71 0.78 0.63 0.40 0.35 0.39 0.70 1.00 0.73 0.85
0.16 0.53 0.85 0.92 1.08 1.12 0.68 0.54 0.54 0.68 1.01 1.05 1.09 1.16 2.31 2.35 1.80 2.31 2.75 1.62 1.39 0.96 0.75 0.80 0.83 0.77 0.66 0.51 0.67 0.58 0.52 0.44 0.51 0.54 0.60 0.62 0.69 0.54 0.65 0.62 0.87 0.73 0.73
0.33 0.38 0.26 0.15 0.12 0.26 0.35 0.39 0.39 0.44 0.68 0.82 1.37 1.07 1.36 1.94 1.86 1.32 1.66 1.67 1.37 1.11 1.02 0.82 0.60 0.49 0.43 0.59 0.62 0.54 0.48 0.45 0.34 0.41 0.49 0.57 0.62 0.59 0.49 0.62 0.69 0.61 0.65
0.04 0.10 0.08 0.09 0.09 0.11 0.17 0.26 0.35 0.40 0.50 0.72 1.40 1.47 1.15 1.55 1.44 1.26 1.33 1.51 1.91 1.80 1.41 1.17 0.95 0.70 0.59 0.47 0.66 0.70 0.54 0.40 0.25 0.17 0.26 0.35 0.32 0.30 0.27 0.45 0.56 0.55 0.69
0.07 0.03 0.09 0.16 0.19 0.15 0.17 0.15 0.18 0.22 0.27 0.43 0.86 1.27 1.35 1.36 1.34 1.42 1.71 1.56 1.43 1.53 1.34 1.09 1.11 1.02 0.86 0.56 0.61 0.60 0.51 0.48 0.53 0.38 0.20 0.24 0.31 0.26 0.26 0.40 0.42 0.49 0.68
0.04 0.09 0.16 0.18 0.32 0.40 0.40 0.25 0.28 0.24 0.30 0.39 0.69 1.27 1.49 1.76 1.98 1.78 1.80 2.04 1.87 1.51 1.38 1.40 1.10 1.18 1.38 1.06 0.61 0.56 0.52 0.49 0.48 0.47 0.35 0.24 0.33 0.25 0.25 0.29 0.38 0.48 0.60
0.07 0.14 0.24 0.23 0.32 0.49 0.63 0.59 0.45 0.45 0.36 0.34 0.49 1.13 1.46 1.78 2.31 2.67 2.74 2.68 2.33 1.99 1.92 1.75 1.88 1.71 1.19 1.22 1.26 1.00 0.82 0.90 0.84 0.87 0.71 0.36 0.31 0.30 0.31 0.30 0.23 0.24 0.38

GFSSE_prec_precacc_312.txt.gz
Total_Precipitation_Accumulation
0.65 0.32 0.30 0.12 0.11 0.08 0.09 0.05 0.04 0.06 0.07 0.09 0.08 0.11 0.17 0.19 0.16 0.17 0.17 0.18 0.22 0.22 0.16 0.13 0.24 0.33 0.31 0.39 0.42 0.60 0.46 0.41 0.63 1.33 1.76 1.59 1.65 1.44 1.25 1.41 1.32 1.30 1.89
1.14 0.62 0.69 0.28 0.10 0.06 0.08 0.09 0.12 0.08 0.10 0.10 0.07 0.14 0.21 0.27 0.22 0.19 0.23 0.33 0.40 0.42 0.36 0.25 0.36 0.51 0.47 0.47 0.38 0.41 0.27 0.11 0.14 0.48 1.25 1.45 1.10 1.01 1.23 1.66 1.65 1.42 1.47
1.37 1.05 0.82 0.69 0.23 0.15 0.33 0.13 0.06 0.08 0.09 0.04 0.04 0.09 0.25 0.31 0.31 0.35 0.55 0.54 0.69 0.67 0.48 0.37 0.57 0.79 0.80 0.61 0.43 0.46 0.24 0.10 0.14 0.22 0.55 0.79 1.14 1.36 0.97 1.14 1.40 1.37 1.43
1.04 1.24 0.93 1.07 1.13 0.53 0.43 0.23 0.17 0.10 0.05 0.04 0.15 0.17 0.36 0.30 0.45 0.95 1.21 1.14 0.97 0.92 0.63 0.52 0.54 1.37 1.06 0.86 0.52 0.31 0.21 0.18 0.24 0.21 0.27 0.60 1.14 1.46 0.89 0.73 0.90 1.13 1.39
0.96 0.61 0.97 1.12 1.00 0.80 0.47 0.28 0.43 0.48 0.34 0.09 0.09 0.31 0.47 0.68 1.44 2.42 2.66 1.66 1.80 1.70 1.21 0.91 0.69 1.01 1.19 0.84 0.49 0.32 0.25 0.17 0.23 0.43 0.54 0.64 0.78 1.35 0.96 0.77 0.99 1.13 1.20
1.23 1.43 2.09 1.85 1.56 0.87 0.63 0.82 1.08 1.07 0.82 0.56 0.50 0.72 1.02 1.53 2.46 2.42 1.60 1.41 1.85 3.04 1.63 1.18 0.68 0.39 0.30 0.59 0.62 0.66 0.39 0.23 0.55 0.92 0.89 0.66 0.62 1.01 0.77 0.56 0.71 1.00 0.74
2.61 2.47 3.19 4.34 3.85 2.92 1.92 1.42 1.43 1.65 1.34 1.37 1.78 1.83 1.87 1.84 2.50 1.42 0.69 1.07 2.46 2.34 1.07 0.94 0.57 0.32 0.45 0.22 0.27 0.42 0.39 0.33 0.53 0.95 0.95 1.09 1.37 1.54 0.63 0.66 0.69 0.63 0.62
6.23 5.29 5.63 6.72 5.83 4.59 3.53 2.33 2.32 2.14 1.88 1.91 1.67 2.14 2.46 1.35 1.12 0.78 0.42 0.44 0.64 0.56 0.57 0.47 0.22 0.27 0.43 0.28 0.23 0.26 0.38 0.42 0.96 2.03 2.03 1.14 1.23 1.32 0.75 0.88 0.80 0.60 0.48
4.44 5.86 6.91 7.55 8.37 7.51 4.24 3.28 3.30 3.37 2.92 2.39 2.16 1.95 2.16 1.62 1.25 0.97 0.45 0.32 0.26 0.17 0.30 0.37 0.28 0.36 0.41 0.43 0.47 0.43 0.58 0.78 1.19 2.61 2.13 1.69 1.01 1.39 1.35 0.97 0.77 0.54 0.38
2.47 3.25 3.60 3.74 7.20 11.80 8.00 5.03 4.14 3.80 3.59 2.59 2.39 1.76 1.31 1.54 1.55 1.39 0.58 0.29 0.23 0.16 0.31 0.56 0.65 0.70 0.50 0.52 0.63 0.47 0.65 0.65 0.83 0.66 0.67 0.84 0.74 1.33 1.51 1.26 0.79 0.59 0.48
2.75 2.39 1.90 2.61 3.41 5.98 9.68 6.54 5.20 4.22 2.79 2.60 2.23 1.68 1.18 0.96 0.89 0.86 0.49 0.32 0.27 0.27 0.45 0.76 0.73 0.80 0.98 0.69 0.75 0.81 0.53 0.33 0.63 0.72 0.34 0.62 0.69 1.09 1.11 1.04 0.79 0.70 0.53
2.04 2.37 1.92 1.33 1.39 2.07 4.51 4.27 4.57 4.59 2.75 2.18 1.79 1.30 1.13 0.96 0.58 0.41 0.30 0.27 0.42 0.37 0.42 0.49 0.70 0.86 0.78 0.38 0.40 0.43 0.30 0.56 0.86 1.31 0.62 0.43 0.89 0.97 0.97 0.98 0.78 0.72 0.74
1.49 1.77 1.33 1.22 1.03 1.23 2.29 1.98 2.43 3.15 3.41 2.31 1.99 1.25 1.23 0.86 0.54 0.51 0.32 0.34 0.70 0.47 0.24 0.29 0.40 0.49 0.46 0.41 0.29 0.25 0.29 0.65 0.53 1.37 1.00 0.56 1.15 1.17 1.20 0.88 1.05 1.18 1.05
0.81 1.09 1.07 0.63 0.76 1.09 1.07 1.29 1.56 1.59 3.18 2.92 2.22 1.68 1.37 0.91 0.44 0.35 0.24 0.25 0.24 0.42 0.24 0.17 0.22 0.32 0.43 0.49 0.49 0.36 0.36 0.57 0.47 0.73 0.81 0.57 0.87 1.25 1.06 0.90 0.92 1.00 1.16
0.87 1.03 0.96 0.82 0.82 0.76 0.51 0.67 1.32 1.09 1.90 2.91 2.33 1.83 1.35 0.87 0.45 0.26 0.25 0.26 0.18 0.26 0.35 0.32 0.25 0.32 0.40 0.53 0.60 0.43 0.57 0.67 0.66 0.69 0.63 0.37 0.50 1.05 0.94 0.69 0.86 1.00 0.94
0.79 1.16 0.91 0.76 0.88 0.80 0.62 0.65 1.12 1.01 1.10 2.21 1.87 1.39 1.56 0.92 0.51 0.38 0.35 0.22 0.29 0.27 0.29 0.47 0.44 0.39 0.39 0.39 0.59 0.67 0.72 0.72 0.74 0.91 0.94 0.79 0.51 0.48 0.99 1.15 0.76 0.90 1.09
0.56 0.70 0.64 0.87 1.00 0.97 0.84 0.85 1.13 1.15 1.12 1.59 1.33 1.33 1.74 1.00 0.74 0.58 0.50 0.35 0.27 0.32 0.28 0.31 0.43 0.67 0.74 0.60 0.55 0.78 0.92 0.67 0.55 0.56 0.52 0.41 0.45 0.49 0.66 1.07 1.42 1.08 0.80
0.24 0.62 0.97 1.17 1.41 1.45 0.72 0.86 0.92 0.98 1.24 1.47 1.23 1.33 1.82 1.12 0.78 0.76 0.68 0.55 0.45 0.33 0.28 0.29 0.35 0.59 0.71 0.59 0.47 0.50 0.53 0.57 0.42 0.32 0.32 0.25 0.24 0.36 0.62 0.65 0.82 1.67 1.44
0.21 0.39 0.73 1.10 1.25 1.64 1.47 1.91 1.66 1.21 1.13 1.37 1.43 1.39 1.88 1.49 1.22 0.83 0.69 0.71 0.58 0.39 0.39 0.46 0.50 0.44 0.48 0.40 0.38 0.40 0.39 0.49 0.58 0.60 0.32 0.30 0.25 0.24 0.38 0.90 0.91 0.98 1.15
0.09 0.38 0.79 1.21 1.76 3.06 2.33 1.45 0.97 0.95 0.92 1.08 1.28 1.42 2.12 1.64 1.90 1.86 1.20 1.05 0.88 0.63 0.54 0.60 0.56 0.55 0.45 0.37 0.38 0.44 0.44 0.65 0.65 0.71 0.80 0.66 0.43 0.39 0.45 0.76 1.11 0.93 1.08
0.16 0.53 0.85 0.92 1.08 1.12 0.68 0.54 0.54 0.68 1.01 1.05 1.09 1.16 2.31 2.35 1.80 2.31 2.75 1.62 1.39 0.96 0.75 0.80 0.83 0.77 0.66 0.51 0.67 0.58 0.52 0.44 0.51 0.56 0.66 0.68 0.73 0.59 0.74 0.68 1.00 1.06 1.11
0.33 0.38 0.26 0.15 0.12 0.26 0.35 0.39 0.39 0.44 0.68 0.82 1.37 1.07 1.36 1.94 1.86 1.32 1.66 1.67 1.37 1.11 1.02 0.82 0.60 0.49 0.43 0.59 0.62 0.54 0.48 0.45 0.34 0.42 0.52 0.64 0.67 0.65 0.53 0.66 0.80 0.71 1.06
0.04 0.10 0.08 0.09 0.09 0.11 0.17 0.26 0.35 0.40 0.50 0.72 1.40 1.47 1.15 1.55 1.44 1.26 1.33 1.51 1.91 1.80 1.41 1.17 0.95 0.70 0.59 0.47 0.66 0.70 0.54 0.40 0.25 0.17 0.26 0.35 0.32 0.33 0.28 0.46 0.57 0.56 0.74
0.07 0.03 0.09 0.16 0.19 0.15 0.17 0.15 0.18 0.22 0.27 0.43 0.86 1.27 1.35 1.36 1.34 1.42 1.71 1.56 1.43 1.53 1.34 1.09 1.11 1.02 0.86 0.56 0.61 0.60 0.51 0.48 0.53 0.38 0.20 0.24 0.31 0.26 0.26 0.40 0.42 0.49 0.70
0.04 0.09 0.16 0.18 0.32 0.40 0.40 0.25 0.28 0.24 0.30 0.39 0.69 1.27 1.49 1.76 1.98 1.78 1.80 2.04 1.87 1.51 1.38 1.40 1.10 1.18 1.38 1.06 0.61 0.56 0.52 0.49 0.48 0.47 0.35 0.24 0.33 0.25 0.25 0.29 0.38 0.49 0.60
0.07 0.14 0.24 0.23 0.32 0.49 0.63 0.59 0.45 0.45 0.36 0.34 0.49 1.13 1.46 1.78 2.31 2.67 2.74 2.68 2.33 1.99 1.92 1.75 1.88 1.71 1.19 1.22 1.26 1.00 0.82 0.90 0.84 0.87 0.71 0.36 0.31 0.30 0.31 0.30 0.23 0.25 0.38